GFSSE_500_rhum_000.txt.gz
RH
27 28 24 23 26 22 16 15 8 8 7 8 8 8 8 8 4 4 12 12 11 9 4 4 3 3 3 4 4 5 5 5 5 5 4 4 4 3 2 2 1 1 1
28 28 25 26 23 17 14 8 9 7 8 8 8 8 8 7 5 6 12 11 12 11 5 5 4 3 3 3 4 5 6 5 4 5 5 5 5 4 2 2 1 1 0
28 28 26 25 17 11 10 9 7 8 9 9 8 9 9 8 7 8 12 11 13 14 7 5 4 3 4 4 4 5 6 6 5 5 6 6 6 6 4 2 1 1 0
29 27 27 23 13 10 13 9 9 9 9 9 8 10 8 8 8 9 11 11 12 15 12 8 5 5 4 4 4 6 6 7 6 6 6 6 7 7 6 3 1 1 0
29 27 29 23 13 15 15 12 10 11 10 10 9 10 10 7 7 7 9 9 11 15 16 16 15 11 5 4 4 5 6 7 7 7 7 7 7 8 6 4 2 1 1
28 27 28 23 15 12 15 12 9 10 10 11 9 9 10 8 6 6 8 9 16 19 19 19 18 14 8 6 5 4 5 6 7 7 7 7 8 8 8 5 2 1 1
28 28 25 22 15 14 14 10 8 10 11 11 8 7 10 8 5 5 8 8 11 14 17 20 19 15 9 8 6 5 5 5 6 7 7 7 7 8 9 7 3 1 1
31 28 24 17 16 21 10 8 5 8 10 8 6 6 9 8 5 6 5 2 12 7 5 5 6 6 8 9 7 5 5 4 4 6 6 7 8 8 10 8 4 2 1
38 29 26 16 21 22 9 7 5 6 7 7 8 8 7 6 3 5 4 19 8 11 14 10 3 4 5 6 6 5 5 4 4 4 5 5 6 8 9 9 5 1 1
38 31 25 18 25 27 14 7 7 8 8 8 12 12 9 3 4 5 16 20 14 19 15 14 11 8 5 4 5 5 5 4 3 3 3 4 5 6 7 8 5 2 1
37 32 23 22 27 28 26 13 8 9 9 11 14 14 12 8 5 6 22 16 24 19 18 18 15 11 8 6 5 5 4 3 3 4 4 5 6 6 7 7 6 2 1
36 29 23 28 28 24 24 24 18 12 12 11 12 14 16 14 8 8 21 20 26 22 25 26 26 18 12 10 9 9 9 9 9 8 6 5 5 6 7 8 7 4 1
34 23 19 24 23 21 20 20 21 19 14 12 11 12 16 16 14 8 20 21 26 23 25 27 28 28 26 19 15 14 15 16 16 14 11 10 8 7 8 9 8 5 2
30 27 21 25 29 22 17 17 16 16 16 13 12 12 14 13 10 7 17 19 24 23 24 26 28 30 31 32 33 33 33 34 35 36 35 32 24 16 11 10 10 7 4
26 26 25 26 27 25 23 19 19 19 18 20 21 21 21 15 10 9 12 19 20 24 25 24 25 25 27 31 34 36 36 38 40 42 44 44 42 36 24 15 11 10 7
33 32 30 29 25 27 27 26 26 21 23 25 23 22 20 17 13 10 10 20 17 19 20 21 21 24 26 26 29 30 32 36 38 41 46 48 49 48 44 34 18 13 11
34 30 29 28 28 26 24 17 16 17 22 20 18 18 14 12 10 8 10 20 19 18 15 17 21 24 25 26 25 26 26 27 30 35 42 50 56 58 53 48 33 19 16
31 28 26 26 22 19 15 12 11 11 12 12 11 10 9 8 8 7 10 18 20 22 23 25 27 28 27 28 29 29 26 25 26 31 38 48 56 61 61 56 48 27 18
28 26 22 14 12 11 10 8 7 6 6 6 6 6 7 7 7 6 10 15 17 21 22 19 23 27 28 31 33 34 32 29 28 32 38 41 49 59 64 61 58 40 24
23 18 11 7 8 7 6 6 7 6 7 7 6 6 7 7 7 6 8 11 11 9 5 5 3 10 16 14 17 33 32 30 33 39 44 44 44 53 62 65 62 64 40
14 6 3 3 4 5 6 6 6 7 7 7 7 7 6 6 7 7 7 8 8 6 4 2 1 1 3 6 28 33 36 40 44 48 48 47 48 56 66 73 75 83 52
2 2 4 3 3 3 3 4 5 5 5 5 6 6 6 7 6 6 8 7 7 8 6 3 2 3 13 35 38 42 43 46 50 50 50 51 59 72 81 90 89 92 81
4 3 2 1 0 0 0 0 0 0 1 2 3 3 4 4 5 5 5 6 6 5 6 15 33 40 39 41 44 47 45 45 50 57 60 69 77 85 95 95 92 90 94
5 5 4 4 4 4 4 4 5 6 6 5 4 5 7 9 10 10 9 10 10 20 31 36 38 38 35 42 47 56 59 66 66 57 66 79 90 98 98 95 91 92 90
13 14 14 15 14 14 14 14 13 12 12 13 14 14 16 19 20 22 24 23 23 26 33 40 43 46 48 57 65 67 69 72 74 73 57 86 74 90 88 94 95 94 85
14 16 18 20 21 21 20 20 20 21 22 23 24 25 27 27 27 30 35 40 46 45 44 46 49 55 60 66 70 73 74 76 86 88 73 83 77 79 74 74 81 100 94

GFSSE_500_rhum_006.txt.gz
RH
40 36 32 30 26 26 23 17 13 7 8 8 7 8 10 11 11 10 6 9 12 12 14 10 6 5 4 4 3 3 4 5 6 6 5 5 5 6 6 6 6 7 8
44 35 31 30 30 21 14 10 8 8 9 8 8 8 9 9 11 11 9 10 11 11 12 16 14 15 14 13 10 5 3 3 4 5 5 6 6 6 6 6 6 6 7
46 34 30 29 30 18 11 9 9 8 8 8 8 8 9 9 11 10 10 10 10 10 12 16 17 18 17 16 14 12 10 5 4 4 5 5 5 5 6 6 6 5 7
49 31 29 30 29 17 12 10 7 8 9 9 9 9 9 9 9 9 9 8 9 8 11 13 10 8 9 10 12 14 11 9 6 4 5 5 4 5 5 6 6 4 6
49 29 28 26 22 17 15 10 10 10 11 11 11 9 9 10 10 9 6 5 7 4 12 9 12 11 7 3 2 3 6 8 8 6 5 5 4 4 4 4 3 4 6
49 29 27 25 14 15 11 9 10 11 11 11 12 11 9 8 9 9 7 5 6 8 10 15 14 13 12 9 5 4 6 7 7 6 5 5 4 4 3 3 5 7 8
48 36 27 24 15 14 14 8 6 6 10 10 12 10 7 6 8 8 7 5 4 18 12 17 14 13 13 12 10 6 5 5 5 4 4 4 5 6 8 9 9 10 10
47 42 32 25 16 13 15 12 7 6 6 8 9 7 7 8 7 6 5 4 6 19 15 16 18 18 17 15 12 11 10 8 8 8 9 9 10 13 15 19 23 24 25
46 41 42 31 24 15 18 15 8 7 6 6 8 8 9 10 11 8 6 5 6 18 18 18 19 22 25 28 26 22 21 19 20 23 26 30 32 32 32 33 34 32 32
45 42 41 40 31 20 26 21 15 6 7 8 8 8 11 13 13 13 14 12 7 14 19 21 21 23 26 29 31 32 34 35 34 34 33 34 36 37 36 36 34 35 35
52 40 40 40 34 27 23 32 27 18 7 6 8 10 10 13 14 16 16 15 14 10 17 19 24 22 23 25 25 26 27 30 30 31 30 30 30 32 33 35 36 37 39
51 43 37 38 35 28 25 29 28 27 25 19 17 14 14 14 12 12 12 13 14 11 10 16 19 24 26 24 23 22 24 26 27 27 27 26 26 27 28 30 33 36 39
48 47 36 36 34 26 24 25 23 23 22 21 21 19 17 16 15 14 14 17 22 19 10 10 15 20 20 20 20 20 20 24 27 28 28 28 28 28 29 30 32 34 38
38 40 34 32 32 22 23 25 27 24 20 19 18 17 17 18 18 20 24 26 26 24 19 12 8 14 20 19 18 18 20 25 29 29 29 28 27 30 31 32 33 37 40
31 49 34 28 29 26 26 26 27 29 28 26 26 24 22 21 21 22 24 25 23 21 17 13 8 7 10 19 20 21 25 27 29 28 26 22 16 19 31 33 35 39 44
27 38 34 29 28 28 27 28 29 30 30 30 26 23 23 22 23 24 24 22 17 15 13 10 9 8 7 11 17 21 24 26 24 20 12 9 10 17 33 35 37 42 46
26 36 33 29 30 32 32 30 29 27 21 18 18 15 13 12 12 12 13 13 12 10 9 8 8 7 7 7 12 19 21 16 7 4 2 2 3 22 37 36 40 44 49
34 33 33 32 32 29 27 23 19 14 10 11 11 11 9 8 8 7 7 8 7 7 7 7 8 8 7 7 8 10 11 8 6 5 3 5 16 36 37 37 42 46 51
38 36 33 30 29 25 18 10 3 2 3 5 5 6 6 6 6 6 7 7 7 7 7 7 7 7 8 8 7 7 7 6 4 4 5 14 36 37 35 38 44 51 59
37 36 34 30 22 14 4 1 1 2 3 3 4 4 5 5 5 5 4 4 5 5 6 6 7 7 7 8 8 8 6 5 5 4 17 37 39 35 36 44 55 65 70
36 33 27 18 8 1 1 1 0 0 0 0 1 1 1 2 2 3 3 4 4 4 5 4 4 4 5 5 4 5 5 6 17 39 40 38 40 45 52 61 68 75 73
32 25 13 5 1 3 3 2 3 5 6 7 8 10 11 11 13 15 16 17 20 22 24 23 22 22 21 25 24 23 23 32 42 44 48 55 62 64 72 83 82 72 70
28 9 1 2 4 5 8 10 11 12 15 18 19 18 18 18 18 18 19 21 24 27 31 35 38 39 39 42 44 43 40 39 46 67 68 71 74 77 83 78 68 76 65
7 1 6 9 10 10 10 13 17 19 19 19 20 22 26 28 30 30 31 31 31 32 34 33 32 30 29 28 29 32 32 29 26 23 44 57 57 68 67 76 78 75 81
5 9 9 10 14 18 19 20 22 24 30 32 33 32 30 28 25 24 23 22 22 23 23 24 24 23 23 22 23 24 24 25 32 39 29 56 72 76 79 87 97 100 98
7 12 23 29 35 36 34 33 33 30 26 22 18 16 17 18 18 17 17 17 17 17 17 17 17 18 18 19 22 34 46 51 58 72 75 71 78 93 97 94 98 99 98

GFSSE_500_rhum_009.txt.gz
RH
42 38 36 32 30 26 25 23 16 11 8 8 8 8 9 10 10 10 10 8 11 11 12 12 14 14 14 14 13 11 8 5 4 4 4 5 5 5 5 5 5 5 6
45 44 35 32 30 27 21 14 8 8 8 9 8 8 8 8 7 11 10 10 11 11 11 9 12 15 16 15 15 16 14 12 10 8 4 4 5 5 5 5 5 5 5
46 45 34 31 31 28 17 10 5 6 8 9 9 9 8 8 9 12 12 11 10 9 8 9 10 8 8 6 5 3 3 4 8 9 7 5 5 5 5 4 4 4 4
49 48 34 30 30 29 16 11 5 6 8 10 10 9 9 10 10 11 11 12 10 7 6 11 9 14 12 11 9 5 3 3 5 6 7 6 6 5 5 4 3 3 4
52 50 30 29 28 24 16 13 7 8 11 11 11 11 10 9 10 10 10 8 6 6 6 11 14 15 13 12 11 10 5 5 5 7 6 5 5 4 4 4 6 8 9
55 50 31 29 25 18 15 10 7 10 12 12 12 11 10 9 8 9 10 8 6 5 12 12 17 14 16 15 14 12 9 7 6 5 5 5 7 8 9 11 15 19 23
55 49 38 28 26 13 14 13 6 6 11 12 12 11 10 9 7 7 8 7 5 4 15 16 17 18 19 22 20 17 14 12 10 10 12 15 20 24 27 30 30 29 29
53 48 43 32 27 17 12 15 9 6 5 6 9 10 10 8 8 8 7 6 3 5 14 19 19 20 22 24 28 31 32 30 31 33 33 31 30 31 31 31 29 28 28
51 48 42 41 32 26 16 16 16 7 8 7 7 8 8 8 9 10 11 10 10 6 7 20 21 22 22 24 26 27 28 30 31 31 30 30 30 30 30 30 29 30 31
51 47 43 41 42 34 29 18 22 18 6 7 7 8 8 8 11 13 15 15 16 15 9 8 19 22 23 23 23 24 24 25 26 26 26 26 24 24 25 26 27 29 30
40 50 44 40 41 40 33 25 25 30 22 10 6 7 8 10 11 12 13 12 13 14 13 10 9 13 19 23 24 24 24 23 22 23 26 25 25 25 26 26 26 27 29
34 39 53 41 37 38 36 28 25 30 29 25 21 18 16 16 15 15 14 13 13 14 18 22 20 14 9 15 20 20 20 20 20 20 25 27 27 28 25 21 19 25 30
33 30 47 41 36 35 35 28 26 26 23 22 22 21 20 20 19 18 17 16 16 20 25 27 26 24 20 13 9 16 20 19 18 19 24 28 30 29 26 22 13 8 23
37 28 39 51 37 32 33 25 24 28 28 27 24 21 19 18 18 18 20 21 22 22 23 24 24 20 19 16 12 8 9 18 20 21 24 27 29 27 24 16 6 4 11
36 33 27 38 40 31 32 30 26 26 26 28 28 27 27 28 29 28 28 27 27 26 24 24 20 15 14 12 10 9 8 7 11 18 20 24 24 20 12 5 3 4 16
32 31 29 33 36 34 40 37 33 33 32 32 31 30 29 25 21 19 20 18 16 15 14 14 13 12 10 9 8 8 8 7 7 10 16 18 15 8 5 3 3 7 28
26 27 26 34 34 33 36 38 33 29 28 26 23 19 13 14 14 13 11 10 9 8 8 8 8 7 7 7 7 8 8 8 7 6 7 8 6 4 3 3 5 16 37
26 25 31 35 34 35 32 30 28 25 21 14 7 4 4 6 7 6 7 8 7 7 7 7 7 7 8 8 8 8 8 8 9 9 8 6 4 3 3 3 10 33 42
33 34 40 36 34 34 32 29 21 14 4 1 2 3 4 5 5 6 5 4 4 4 4 4 4 4 4 5 5 5 6 8 9 9 8 6 4 4 4 15 40 44 42
51 44 39 37 36 32 27 17 8 2 1 1 0 0 1 1 2 3 5 6 9 10 13 15 16 17 18 18 18 18 17 16 14 10 8 8 10 23 39 46 47 48 54
48 40 38 36 31 22 11 4 2 2 2 2 6 10 11 14 17 17 17 18 19 20 22 24 26 28 31 34 33 35 35 35 34 35 40 44 47 52 56 65 70 71 71
42 38 35 32 25 9 1 2 5 7 11 13 16 19 20 20 22 24 26 28 30 30 32 32 32 32 32 33 32 30 28 32 41 49 54 59 64 67 69 70 74 75 68
36 34 26 20 9 1 6 8 10 12 17 22 25 30 32 32 32 31 29 28 26 22 22 22 21 19 19 20 20 19 18 17 18 20 24 26 29 29 36 43 50 63 70
27 21 10 4 2 7 10 17 23 27 31 34 35 33 30 26 23 21 19 17 16 16 15 17 19 20 22 20 27 27 25 23 17 14 18 27 55 54 63 77 92 99 98
17 7 3 6 9 21 30 34 35 36 36 32 28 24 21 18 17 16 17 20 22 23 22 20 16 12 12 13 18 26 34 38 42 43 34 37 47 68 88 94 98 98 100
4 5 17 32 35 36 37 35 32 29 25 20 16 15 16 18 18 13 8 7 6 6 6 7 7 8 8 8 8 8 8 9 12 20 21 27 39 48 83 96 96 98 97

GFSSE_500_rhum_012.txt.gz
RH
42 39 37 35 32 29 26 25 23 16 9 8 9 8 8 10 10 11 12 10 10 11 11 10 9 10 11 11 12 11 11 11 11 9 8 6 4 4 4 5 5 5 5
45 44 42 38 32 30 26 23 18 10 8 8 9 8 8 9 8 8 11 12 11 11 10 8 8 9 8 8 8 8 6 4 2 3 5 9 8 5 5 5 5 4 4
43 45 44 39 32 30 26 21 12 6 7 8 10 9 9 8 9 9 12 12 13 13 10 8 7 9 12 12 11 10 9 7 4 4 5 6 7 7 6 5 4 4 4
52 50 47 40 31 30 29 21 12 4 4 8 11 10 9 9 9 10 10 11 11 9 5 5 10 10 15 13 11 11 10 9 5 5 6 7 6 5 5 5 6 8 10
60 56 49 38 30 28 22 18 14 6 6 10 12 11 11 10 9 10 10 10 9 8 6 5 12 14 15 14 14 14 12 11 8 7 6 5 6 7 8 9 15 20 23
61 58 50 40 30 28 18 16 13 8 9 13 13 12 11 12 11 9 9 9 8 7 6 6 15 16 16 17 19 21 18 15 12 11 12 14 16 21 22 24 26 26 26
62 57 49 45 31 28 18 14 13 7 8 12 13 14 13 12 12 10 8 7 7 6 3 5 15 17 18 19 22 24 27 28 28 26 26 27 27 28 28 29 28 28 28
60 54 49 46 39 29 25 13 14 14 6 6 9 13 12 10 11 8 8 7 7 5 4 5 11 20 21 19 21 25 26 25 25 26 27 27 28 29 29 27 27 27 26
59 54 50 46 42 38 29 24 15 17 15 7 7 7 8 9 9 8 8 10 12 12 13 11 7 10 17 21 21 22 23 23 23 23 24 25 25 24 24 23 24 24 25
56 46 51 48 43 41 41 32 28 19 21 18 6 7 8 8 8 8 10 13 14 16 16 16 15 12 10 12 13 17 20 21 21 21 21 22 24 25 25 25 25 22 19
45 38 40 54 47 40 41 41 34 27 22 28 26 14 6 7 8 9 11 12 12 13 13 12 12 13 16 20 21 16 11 14 18 20 20 20 20 23 25 26 26 24 23
46 38 32 46 48 43 38 40 38 32 26 26 31 29 27 25 22 20 20 19 19 17 16 16 16 19 24 26 26 24 22 16 11 12 18 19 18 19 23 25 27 26 25
47 41 32 34 51 44 36 36 38 33 28 26 26 25 23 23 23 22 21 20 18 18 19 21 22 23 22 23 25 22 19 18 13 10 8 10 17 20 21 24 26 26 24
46 42 36 32 29 40 41 32 34 30 25 25 27 27 27 27 27 27 26 25 27 27 27 27 26 27 27 26 22 17 15 13 11 10 9 8 7 7 13 18 21 21 18
42 38 34 31 29 34 39 32 30 31 28 28 28 29 29 28 28 29 29 28 23 20 19 17 16 13 12 12 12 10 8 8 8 8 8 8 6 5 5 6 8 8 6
44 39 30 26 28 34 38 35 34 35 36 35 30 28 27 25 24 21 15 11 11 11 10 10 9 8 8 7 8 8 8 8 8 9 10 10 10 10 8 6 5 4 3
45 38 26 26 29 34 37 36 37 34 30 28 26 24 22 16 8 4 3 5 6 6 7 7 7 7 6 6 6 6 6 6 6 6 6 7 9 11 12 12 9 5 4
43 37 29 25 28 37 36 34 33 32 29 24 19 12 4 1 2 3 4 4 5 5 4 4 3 3 4 4 5 6 6 8 9 8 9 9 10 10 10 8 6 5 5
41 35 28 29 36 37 36 36 32 26 17 11 6 2 1 0 1 1 3 7 9 12 16 17 18 17 19 22 23 26 28 30 31 32 32 30 29 26 22 17 17 21 31
45 33 48 41 41 38 37 33 26 16 6 3 2 2 3 7 10 15 19 21 21 23 26 28 28 29 30 33 30 33 34 36 39 43 45 46 47 49 50 51 54 58 62
63 56 56 46 40 38 35 30 21 7 2 3 5 8 10 16 20 21 23 28 32 34 35 33 30 27 25 22 19 18 17 18 18 19 19 20 20 21 21 22 24 25 30
62 57 49 43 39 35 31 20 5 4 8 9 11 16 22 26 31 35 36 34 30 26 22 18 16 15 15 18 15 13 13 14 16 22 31 34 39 39 37 39 37 35 34
52 46 40 37 34 22 10 3 6 9 13 20 25 29 35 38 37 33 28 23 19 17 17 17 15 13 11 9 8 7 6 6 6 6 6 7 9 16 31 38 49 53 59
37 36 32 26 16 5 5 8 14 26 31 36 40 40 38 35 29 22 19 18 14 10 8 8 8 8 8 9 9 11 10 9 8 7 8 8 9 10 14 26 39 56 71
29 28 23 8 4 6 16 30 34 40 43 42 39 34 25 20 17 12 8 8 8 9 9 10 10 10 10 10 10 11 12 13 13 12 10 10 10 10 11 15 29 51 92
27 18 5 4 8 21 30 37 40 39 36 30 24 20 14 9 8 9 11 12 13 13 13 12 13 13 13 13 13 12 10 9 8 9 9 8 8 8 10 12 13 18 30

GFSSE_500_rhum_015.txt.gz
RH
43 41 38 37 33 29 27 25 24 23 18 10 8 9 8 8 9 9 10 12 11 11 12 11 10 8 8 9 8 8 8 8 6 4 3 3 5 8 8 5 4 5 5
50 47 42 40 39 32 30 26 25 22 16 10 8 10 8 8 8 7 8 11 12 12 11 10 8 7 8 10 11 11 10 10 9 8 4 3 4 5 7 8 6 5 4
48 45 41 41 40 34 31 28 25 17 9 6 8 10 10 9 8 8 9 12 12 13 13 12 7 6 9 10 12 11 10 10 9 9 5 4 7 7 6 6 5 5 5
55 50 48 43 44 33 30 28 26 16 6 4 8 11 10 10 10 10 10 10 10 10 9 6 6 7 10 12 13 12 12 12 10 10 7 5 5 5 5 5 6 9 14
61 56 54 47 45 31 30 22 19 15 7 4 6 11 11 11 11 10 10 10 10 10 9 8 6 7 13 16 15 14 15 15 14 12 10 9 8 9 12 16 19 22 24
65 57 55 50 49 32 29 21 15 13 8 7 9 13 12 11 11 12 11 10 9 9 8 7 5 7 15 16 17 16 18 20 21 22 23 21 20 22 24 25 26 26 26
64 60 55 49 48 36 29 26 13 14 8 7 10 13 13 13 12 12 12 10 8 7 7 6 3 5 12 18 18 17 18 21 25 25 26 25 27 28 26 26 27 27 26
65 60 54 50 48 44 32 28 20 13 15 8 6 6 10 13 13 11 11 9 7 8 9 9 9 8 7 11 15 17 18 20 21 23 24 23 23 24 24 24 24 23 24
68 63 52 52 48 44 42 34 28 22 16 17 13 8 7 6 7 10 10 8 8 11 13 14 15 15 15 13 11 11 14 14 14 17 19 20 21 22 23 23 24 24 25
67 63 42 45 49 46 42 41 36 29 27 20 20 22 11 7 7 8 9 9 9 11 12 13 13 13 13 13 13 16 18 24 23 20 15 13 17 19 20 20 21 24 26
59 59 39 36 46 52 44 40 39 38 32 29 24 24 29 27 18 9 8 8 11 15 16 17 17 16 15 15 17 22 25 26 25 24 21 18 14 10 13 18 20 19 22
56 53 42 37 32 45 46 40 36 36 37 35 30 26 28 30 28 26 24 24 23 22 22 20 19 19 20 22 23 24 24 25 25 23 18 18 15 12 9 8 7 10 15
66 49 42 41 34 32 33 42 38 33 35 37 33 28 26 26 25 25 26 26 26 26 25 26 27 26 26 26 26 27 26 20 15 14 15 13 11 10 9 8 7 7 6
70 52 42 42 36 30 30 31 39 31 31 33 28 24 24 25 26 27 28 29 27 26 26 25 19 16 16 14 14 12 11 10 9 9 9 8 9 9 10 10 10 8 5
66 61 47 40 35 28 29 30 36 35 31 34 34 34 33 30 28 26 24 22 20 17 12 8 8 9 9 9 9 8 8 7 7 7 8 8 8 9 10 11 11 11 12
54 56 49 42 32 27 29 33 38 37 37 36 34 31 29 24 21 12 8 3 2 2 2 4 6 6 7 7 7 6 6 5 5 5 5 6 6 6 6 6 6 7 8
51 50 48 44 37 28 33 40 40 35 34 34 32 29 22 15 8 4 1 1 2 3 3 4 4 4 4 5 7 9 11 14 18 19 20 22 23 23 23 22 22 20 18
50 49 44 41 33 28 32 40 37 36 34 32 26 19 11 7 4 2 2 3 5 7 9 11 14 17 18 18 19 20 23 26 28 30 31 32 34 35 37 38 39 40 41
48 45 44 44 37 31 39 38 37 36 34 30 21 10 4 3 4 6 10 14 18 21 21 20 20 21 25 28 27 32 32 31 29 25 22 20 19 18 18 19 20 19 20
46 23 32 48 29 40 42 39 38 37 34 26 11 4 4 6 9 11 16 21 23 27 31 33 34 34 30 25 20 16 14 14 16 19 20 19 21 23 19 19 25 30 32
11 22 54 63 62 52 44 41 39 36 24 13 4 7 9 11 14 19 24 30 37 39 36 29 21 16 15 14 12 11 8 8 7 7 7 8 8 9 9 10 11 12 15
41 50 62 63 55 49 45 41 34 17 7 4 9 12 19 26 32 37 41 39 33 24 19 15 12 9 8 9 8 7 7 7 8 8 9 9 10 11 12 13 13 13 13
61 60 57 52 47 44 39 22 8 6 8 10 18 30 36 42 45 41 31 22 16 12 8 8 9 10 12 13 13 12 11 11 10 12 12 13 13 12 12 11 12 13 14
48 49 44 48 47 31 16 6 6 10 19 30 38 43 45 40 31 23 17 11 10 12 13 15 16 16 16 17 18 18 18 17 16 14 14 13 11 9 8 7 7 8 10
42 44 47 41 28 12 4 5 12 29 40 46 48 40 28 24 24 19 14 12 13 14 14 16 18 20 20 20 20 19 18 15 11 11 14 12 11 10 9 9 8 7 6
37 36 33 23 14 4 5 19 34 44 48 45 34 26 25 22 14 14 17 19 18 16 17 20 21 21 20 18 16 14 13 13 13 12 12 12 11 10 10 9 8 7 7

GFSSE_500_rhum_018.txt.gz
RH
33 34 33 34 33 33 28 26 23 24 23 20 12 8 8 8 9 9 8 9 12 11 12 12 12 10 8 8 8 9 9 10 10 9 9 8 6 3 3 4 8 8 6
42 42 43 41 39 36 32 26 26 25 23 18 13 8 9 9 8 8 6 8 11 12 12 12 12 10 8 8 10 10 11 10 10 9 8 9 7 4 5 7 7 7 6
43 43 42 40 36 36 36 32 29 27 22 13 7 8 10 10 9 8 8 8 12 12 12 13 13 7 6 9 10 12 12 12 11 11 10 9 6 4 5 5 5 5 5
43 45 44 41 38 40 38 31 28 25 21 11 3 7 10 11 10 10 10 10 10 11 11 9 8 7 6 10 12 14 13 13 13 15 13 11 9 7 6 6 7 9 12
50 48 51 46 42 40 36 31 26 17 13 8 4 7 10 11 11 11 10 10 10 10 10 9 8 7 6 10 13 14 14 14 17 18 18 18 17 16 16 16 18 19 20
63 62 51 50 44 47 40 30 28 14 12 8 6 6 11 13 12 11 11 12 11 10 9 9 8 7 4 6 14 17 17 16 16 20 22 23 25 25 24 23 24 25 26
66 56 51 50 47 47 45 34 29 22 13 11 6 9 11 13 13 13 13 12 12 11 8 7 7 7 5 5 7 12 16 18 18 19 20 21 24 24 25 25 25 25 25
64 55 54 52 49 48 47 42 34 28 18 14 14 7 6 7 9 11 13 11 11 9 8 10 12 11 12 12 11 11 12 13 14 15 15 15 16 18 22 22 23 23 24
62 57 59 50 48 49 47 43 41 35 30 25 17 18 13 8 7 7 7 7 9 9 9 11 13 14 15 15 15 15 13 12 12 16 22 24 24 22 18 14 18 21 20
57 59 60 44 41 45 48 45 41 40 38 33 30 24 21 22 17 8 7 7 8 9 9 10 11 13 15 16 16 14 14 14 16 22 24 23 22 23 22 19 15 10 13
52 54 59 45 34 36 47 45 42 40 39 39 39 34 29 26 28 30 27 25 24 23 23 23 23 23 22 21 19 20 20 20 22 24 25 26 24 22 21 18 17 13 10
52 49 60 46 36 33 34 37 44 42 37 34 36 38 37 32 27 26 27 25 24 24 25 25 25 25 25 24 25 25 26 24 25 25 25 21 15 14 15 15 12 11 10
59 70 65 47 42 40 35 32 30 36 39 33 32 35 36 32 28 27 27 27 26 26 26 27 27 28 25 24 20 15 15 15 16 14 12 11 10 9 9 9 9 9 9
82 82 73 52 43 41 37 32 29 31 36 35 30 32 32 29 27 29 30 28 27 26 24 22 19 17 12 8 7 8 9 9 9 9 8 8 7 7 7 8 8 8 9
85 81 72 62 48 42 35 29 27 30 35 36 34 36 35 32 30 28 26 23 20 15 8 2 2 2 3 4 5 6 7 7 7 6 6 6 6 5 6 6 6 6 6
78 70 64 57 49 45 39 30 29 29 38 38 34 31 31 28 27 25 19 15 10 3 1 1 2 3 4 4 4 4 6 7 10 12 14 18 20 22 22 23 25 26 27
58 52 51 50 49 45 38 35 33 33 38 36 35 33 30 26 18 10 5 5 3 2 3 4 6 10 14 17 19 20 20 22 24 27 30 32 31 31 32 30 28 28 27
50 48 49 48 45 43 40 33 31 35 38 35 36 35 33 27 14 4 4 7 8 10 13 17 20 22 23 23 27 33 34 33 30 25 20 17 15 15 15 17 17 16 17
45 45 49 56 43 40 47 37 36 40 38 37 37 37 28 15 6 6 9 11 13 15 20 24 28 32 36 34 32 25 17 13 12 11 10 9 8 8 8 8 8 8 8
46 51 55 48 16 33 55 64 60 47 38 39 38 27 12 7 8 11 14 18 25 30 34 38 38 34 26 18 14 11 8 8 9 10 10 10 10 10 10 9 9 10 10
54 55 30 28 38 51 68 66 55 44 42 39 22 10 6 9 11 20 31 36 39 40 35 28 18 12 9 9 10 11 12 13 15 15 17 17 16 16 15 14 14 14 14
45 23 30 44 49 60 66 59 48 44 37 16 8 7 10 13 29 38 41 39 33 25 18 13 11 11 13 14 14 14 13 16 18 18 19 19 19 18 17 15 13 12 11
14 23 59 64 61 61 57 51 46 27 12 7 9 22 36 42 45 40 32 26 23 21 16 13 16 16 12 13 13 14 14 15 15 16 17 17 16 15 14 14 12 12 11
35 43 50 60 65 65 52 40 22 12 8 12 29 38 48 47 38 29 25 25 17 14 18 19 13 11 10 9 11 15 17 16 16 14 15 16 16 17 16 15 14 13 11
43 48 57 62 59 54 35 20 10 9 20 35 49 53 43 33 30 30 22 14 17 20 16 13 13 14 14 15 17 17 18 19 19 18 14 15 16 17 16 16 14 12 10
39 47 54 49 37 25 14 8 10 27 48 54 49 36 31 35 33 18 19 21 18 16 16 17 18 18 19 20 20 20 20 20 20 19 18 16 15 14 12 10 9 8 7

GFSSE_500_rhum_021.txt.gz
RH
25 26 26 26 25 23 24 21 23 22 22 23 22 18 9 8 8 8 10 8 8 11 11 11 12 12 11 8 8 7 8 9 11 10 9 8 7 7 7 6 4 4 4
28 31 32 33 36 35 30 27 26 23 25 25 21 17 11 8 9 8 9 9 8 11 12 12 12 13 13 9 6 8 9 12 11 11 11 11 9 8 6 4 4 5 6
37 37 37 36 37 33 33 26 32 30 28 27 19 11 7 9 10 9 8 7 6 10 12 12 13 13 9 6 6 8 10 13 12 13 13 15 14 10 9 7 6 5 5
42 43 40 38 39 38 33 38 34 31 27 23 16 4 5 8 10 10 10 10 9 9 10 12 11 9 8 8 6 7 11 14 14 14 15 18 18 18 16 13 12 12 14
54 55 42 44 44 42 39 36 34 30 21 15 11 4 5 10 11 11 10 10 10 10 11 10 10 9 8 7 5 6 10 14 16 16 17 18 22 22 22 24 25 24 24
72 59 50 50 52 42 42 41 34 30 27 15 10 6 5 7 12 13 12 11 11 12 12 11 9 8 7 6 4 4 8 10 13 17 19 20 21 22 22 24 25 26 26
72 61 52 50 52 48 46 45 39 32 29 21 14 9 7 8 12 14 14 14 14 13 11 11 8 7 8 8 7 7 7 9 14 14 14 17 18 18 19 19 20 22 23
71 68 53 53 53 49 49 45 44 40 33 29 22 16 14 8 7 8 10 11 12 11 9 10 8 10 12 13 14 15 15 14 13 12 11 10 12 19 24 24 22 19 16
69 65 53 58 52 46 47 46 44 41 40 35 31 29 23 19 18 12 7 8 8 8 8 9 9 9 11 12 13 14 15 15 14 13 14 17 19 23 25 24 24 24 23
58 57 51 64 54 41 40 45 46 45 43 41 41 39 36 31 26 25 26 23 14 10 9 9 10 16 20 22 21 21 20 20 19 18 16 18 19 22 25 27 26 25 23
48 49 57 57 57 39 34 36 44 47 44 42 38 37 37 39 38 32 28 28 29 28 26 25 23 23 24 24 24 25 25 26 25 25 26 24 25 25 24 24 20 16 14
54 46 55 52 60 42 40 35 32 31 33 39 40 35 33 36 38 37 32 30 28 27 27 27 28 27 26 26 26 27 25 26 23 17 14 16 19 19 17 13 11 10 11
58 51 55 55 63 47 42 40 37 31 29 30 34 37 31 33 34 32 28 26 26 28 28 29 28 27 26 24 23 18 13 9 6 6 8 10 10 9 8 8 7 7 7
58 59 67 67 66 58 46 41 38 32 29 29 30 36 35 37 38 36 32 30 28 27 25 24 23 20 11 3 2 2 3 3 5 6 7 7 7 6 6 6 6 6 6
63 73 79 79 74 65 54 45 40 31 29 29 33 37 37 35 33 31 29 28 26 23 18 13 8 3 1 1 2 3 4 5 6 7 9 12 15 17 17 18 22 24 25
65 78 81 76 71 62 61 50 47 40 36 31 35 38 34 33 32 29 28 25 17 10 6 5 3 3 4 8 13 16 19 22 23 23 24 27 28 30 29 26 23 20 18
70 75 76 71 62 52 50 56 49 37 37 34 38 40 34 34 36 36 32 23 12 5 4 6 9 14 18 19 22 25 27 31 33 30 25 19 14 12 11 10 9 9 8
72 69 60 52 51 52 48 46 48 42 37 35 44 40 33 36 38 34 17 8 6 7 10 13 14 16 21 22 30 34 31 21 14 11 10 9 9 10 10 11 12 12 11
63 52 50 47 49 46 52 48 36 41 47 52 55 39 37 39 34 16 8 8 10 17 23 27 29 32 34 31 25 14 10 10 10 12 12 11 12 11 12 13 13 15 16
58 50 46 46 51 57 58 33 18 54 63 64 50 42 41 32 13 8 10 13 28 35 38 38 35 28 22 17 14 13 13 13 12 12 11 13 14 15 16 16 17 18 19
51 45 44 49 56 56 31 23 43 65 67 56 46 42 32 11 8 13 31 40 41 40 33 28 22 21 18 15 15 15 14 12 11 10 10 12 13 15 17 17 17 17 17
47 44 46 45 41 22 34 47 60 65 58 48 44 31 10 8 18 33 43 45 38 31 26 24 22 16 14 18 18 14 12 13 13 14 14 14 15 16 18 18 18 18 18
46 46 39 25 11 68 63 64 63 60 55 45 27 10 8 28 44 50 45 36 32 31 28 20 15 18 20 16 15 15 13 12 11 12 12 15 17 18 18 19 19 19 19
40 26 14 23 33 42 60 68 62 52 40 22 9 9 29 49 52 42 35 36 39 30 18 19 18 16 16 16 16 17 16 15 12 9 13 17 19 19 19 19 19 18 17
46 21 28 40 44 58 64 56 47 31 16 10 12 29 52 50 40 37 43 43 28 21 18 18 21 21 20 18 18 17 16 18 21 20 16 17 17 18 18 16 15 14 13
50 23 31 46 54 56 47 34 22 15 14 24 46 48 41 38 37 33 25 22 20 20 23 23 22 22 20 21 22 21 22 22 22 21 18 17 16 15 14 13 10 8 8

GFSSE_500_rhum_024.txt.gz
RH
15 16 21 24 24 25 23 21 20 19 18 18 20 22 21 18 9 8 7 8 10 8 9 11 10 12 12 11 11 9 6 8 10 11 11 11 12 12 7 7 5 4 5
19 20 24 29 29 28 25 25 23 20 23 22 25 24 20 17 11 9 9 8 9 9 8 11 12 12 13 14 13 6 6 8 12 12 12 13 14 16 13 9 7 5 5
22 27 34 36 33 29 24 23 23 26 31 28 27 25 17 11 8 9 10 8 8 7 7 11 13 12 12 12 7 7 7 9 12 14 14 13 14 16 17 16 13 12 11
24 33 41 42 39 27 29 31 33 32 32 30 25 19 12 4 7 10 11 10 10 10 10 10 10 11 11 9 9 8 7 8 12 15 15 15 16 18 19 19 22 22 22
32 40 52 52 36 40 40 42 36 35 32 29 19 13 8 4 8 12 12 11 11 11 11 11 11 11 10 9 9 7 5 4 10 14 13 15 16 18 17 18 18 22 24
31 52 63 50 48 48 48 42 38 38 32 30 24 15 9 6 6 9 13 13 12 11 12 12 12 12 10 8 7 6 5 5 7 10 13 14 15 15 16 17 16 17 19
50 69 63 50 48 53 49 46 41 42 39 32 29 20 14 10 7 8 11 14 15 14 14 14 12 11 8 8 11 12 12 12 10 10 10 11 12 12 12 13 18 23 25
41 71 66 54 54 57 51 48 46 44 42 40 34 29 26 18 17 11 7 7 8 7 8 8 8 9 9 10 11 13 14 14 14 14 14 14 14 14 15 17 20 24 25
70 72 72 55 56 64 48 45 46 47 46 43 42 40 36 32 29 25 22 22 17 8 7 8 8 9 10 11 11 12 15 20 21 21 20 19 18 15 16 17 19 22 24
66 68 65 50 57 66 49 39 38 45 48 47 44 42 40 39 40 40 34 30 28 28 30 28 26 24 23 23 22 23 24 24 23 24 24 25 25 25 22 21 24 25 26
38 58 46 46 61 62 53 36 37 36 37 39 42 43 40 38 36 37 39 39 37 32 28 27 26 26 25 25 26 26 27 28 28 30 29 29 24 19 14 14 18 21 20
43 52 42 47 54 55 51 47 41 36 33 30 30 34 40 39 33 33 34 36 34 32 30 28 27 27 27 28 27 27 27 25 21 18 15 12 7 6 7 9 10 11 10
44 50 42 46 48 45 48 50 44 42 39 33 30 31 37 38 37 35 35 35 35 34 31 29 28 27 26 25 24 20 12 2 2 3 4 4 5 6 7 7 6 6 6
50 47 50 44 49 40 44 60 50 42 40 34 30 29 32 36 37 37 34 32 32 29 26 25 26 24 20 18 14 8 2 1 3 4 7 8 10 15 16 16 18 21 24
57 48 52 60 48 52 55 67 62 54 48 42 36 36 31 33 37 34 34 33 32 33 32 26 19 12 8 6 3 3 6 10 16 18 21 24 27 29 30 27 24 21 17
65 61 64 67 72 71 73 70 64 63 56 50 45 43 39 33 35 36 35 36 37 35 24 13 6 4 3 5 8 12 17 21 26 28 31 29 23 17 12 11 10 10 11
62 64 62 66 80 79 69 66 56 53 54 57 51 41 37 34 38 35 37 39 39 26 13 6 6 9 10 14 18 26 30 33 31 25 18 14 11 10 11 12 12 12 11
57 64 72 68 77 72 58 52 54 48 45 43 44 41 42 43 46 40 40 42 26 9 6 8 18 26 32 34 36 35 29 21 14 12 11 12 13 13 12 12 12 12 12
55 65 70 69 58 50 48 48 46 56 53 29 30 51 53 54 48 43 44 27 8 7 12 26 35 37 36 33 28 23 19 15 14 14 15 15 13 12 12 11 11 11 12
56 65 69 58 51 48 47 48 54 59 31 20 45 67 63 55 47 45 31 8 9 23 37 44 41 34 30 26 23 22 18 15 16 17 16 13 13 13 14 14 13 13 15
56 62 63 58 49 44 43 46 42 27 27 48 64 64 54 50 46 28 7 6 22 41 47 41 34 30 28 26 22 18 17 18 17 15 15 16 16 15 16 16 16 15 18
53 60 56 53 49 42 40 38 44 54 55 64 61 56 53 44 25 8 7 23 38 45 40 33 34 33 27 20 19 17 17 18 19 19 18 16 16 16 17 18 20 22 22
50 50 48 48 44 41 32 13 19 44 60 62 60 54 41 20 11 10 15 31 44 38 37 38 30 24 21 20 21 21 19 19 18 18 18 18 19 19 21 22 22 22 21
36 45 49 45 42 20 20 34 41 53 61 55 45 30 17 13 14 25 42 41 38 35 26 23 21 20 22 23 23 23 22 20 19 18 20 21 21 22 22 22 23 22 20
42 48 44 48 35 25 38 43 48 49 42 31 24 16 12 30 43 42 40 34 27 26 23 22 24 26 25 26 25 25 27 27 27 23 18 20 21 22 22 23 22 19 17
47 46 49 48 34 26 31 34 37 28 25 19 14 16 28 45 43 34 27 27 26 24 25 27 28 29 30 30 30 31 30 29 27 25 23 22 20 21 20 19 18 17 15

GFSSE_500_rhum_030.txt.gz
RH
22 16 15 15 14 14 17 22 25 23 17 17 17 21 19 18 23 20 17 10 9 9 9 10 7 8 12 12 13 13 12 14 12 7 9 12 13 14 14 14 15 13 9
15 16 17 16 15 17 24 29 30 19 17 18 24 26 26 24 24 19 13 11 10 9 9 8 8 7 12 13 14 13 14 14 12 6 8 11 14 14 15 14 15 17 16
18 15 15 16 16 21 32 34 29 21 20 22 25 28 26 24 24 18 11 10 11 10 9 8 8 8 10 14 14 14 13 12 9 8 7 9 12 15 15 17 17 16 18
16 17 15 16 18 28 39 40 28 27 22 24 28 31 22 16 16 13 5 9 11 11 10 10 10 10 11 11 11 11 11 10 10 9 8 6 10 13 14 16 16 16 16
16 15 16 18 22 32 43 40 31 30 28 27 33 32 25 16 9 6 5 8 12 12 12 10 11 12 13 12 12 12 11 10 10 9 7 5 5 10 12 12 14 15 15
15 15 19 21 23 40 53 37 38 34 31 35 36 32 31 24 14 9 6 6 9 13 13 14 12 11 11 12 12 12 11 9 8 8 7 5 5 6 11 14 14 15 15
19 18 20 22 28 56 56 38 39 36 39 36 37 38 34 31 28 17 13 8 7 8 10 14 15 15 14 14 14 13 10 9 10 12 12 13 14 14 14 12 13 14 12
22 22 20 23 43 63 50 41 44 48 46 41 38 39 40 38 32 31 29 23 18 14 9 8 8 8 7 8 8 8 9 10 10 12 13 13 14 16 18 20 20 19 17
26 24 21 20 30 58 54 40 47 51 44 43 44 46 45 43 41 40 38 36 34 31 29 27 24 24 24 23 18 18 17 16 17 17 19 22 24 24 25 26 26 26 26
27 24 23 21 30 59 56 42 52 54 42 40 42 44 42 44 44 43 41 39 38 38 39 41 39 35 32 29 28 27 27 27 27 28 28 28 28 27 27 26 25 24 26
26 24 22 21 42 59 55 41 56 57 45 42 41 38 36 32 32 33 37 39 36 34 34 37 37 37 35 33 31 30 28 28 28 27 26 26 23 21 15 12 4 2 3
28 27 24 20 23 57 50 40 55 56 53 45 44 43 42 37 32 32 35 40 40 40 40 38 33 29 27 27 27 27 26 25 27 24 20 19 19 16 9 2 1 3 5
26 29 25 22 21 43 43 37 51 52 52 52 53 46 44 44 42 40 39 36 38 38 33 30 31 33 35 36 35 33 29 25 20 15 10 8 9 6 5 7 9 15 19
26 29 23 25 29 47 46 43 49 53 51 51 60 54 58 54 55 51 45 45 44 39 38 36 36 37 38 40 36 24 16 9 8 7 6 7 10 14 19 23 25 29 31
27 31 24 54 50 51 55 46 47 50 45 47 64 68 60 57 57 57 55 53 51 42 38 37 37 39 40 40 22 9 7 8 10 11 15 19 22 25 29 32 34 34 30
27 32 32 71 60 53 48 43 41 44 51 70 72 62 59 54 46 42 45 49 52 47 39 36 38 41 43 28 8 7 11 19 24 32 37 40 39 38 36 33 28 21 16
23 34 40 83 75 65 57 56 59 66 72 70 61 56 42 42 42 36 30 35 43 44 40 36 33 37 34 9 4 10 21 28 32 37 37 34 32 29 26 20 14 12 11
25 28 54 86 81 72 67 65 65 65 70 59 49 41 51 47 32 52 49 49 43 34 33 33 42 32 14 7 7 17 27 34 38 37 34 30 27 25 22 20 18 17 16
26 29 35 60 63 62 68 76 76 66 55 48 45 46 41 36 48 62 64 61 56 52 49 40 25 16 12 10 17 37 42 40 37 35 33 30 27 24 21 20 19 19 19
22 27 31 37 55 60 71 78 67 58 52 49 46 43 33 42 62 60 57 54 51 47 32 23 19 14 9 12 31 42 39 37 36 33 29 26 25 24 23 22 22 22 22
17 18 29 32 55 62 71 71 71 66 56 51 40 23 38 52 53 51 50 46 40 29 23 18 12 12 15 31 40 38 35 32 27 24 23 23 23 24 26 27 26 25 25
17 22 30 32 48 62 67 66 69 58 52 45 25 28 38 44 45 46 42 34 26 20 16 11 14 31 40 42 37 32 27 25 24 26 29 30 30 30 30 30 30 31 30
29 37 30 36 36 39 60 65 61 52 48 37 25 33 39 41 39 37 30 23 18 12 21 43 46 41 33 31 29 28 30 35 36 34 32 34 34 35 35 35 36 35 34
42 40 28 35 47 53 58 64 52 50 47 46 30 30 34 33 28 26 20 14 15 30 43 44 38 33 29 27 28 36 40 38 34 33 34 36 36 35 35 36 36 34 32
36 31 27 31 40 45 57 49 49 46 48 52 36 27 24 25 24 18 13 22 40 48 41 32 32 30 29 38 40 35 34 34 34 33 30 31 36 37 34 30 23 18 12
37 34 29 34 36 38 42 44 45 43 45 48 31 24 23 19 14 13 30 47 52 42 33 32 32 34 39 36 34 37 38 39 39 36 32 29 26 26 21 14 9 8 7

GFSSE_500_rhum_033.txt.gz
RH
24 23 18 14 13 13 14 14 16 20 20 14 12 12 13 14 14 18 22 19 14 10 9 8 10 10 6 9 13 12 13 13 13 14 13 8 10 13 15 15 15 16 16
21 20 18 16 14 12 11 14 18 21 18 13 12 15 18 21 22 22 22 14 14 11 10 9 9 9 8 9 13 14 14 14 14 15 14 9 7 11 14 15 16 15 16
19 21 17 14 12 11 10 14 21 26 18 17 16 19 22 21 21 22 22 17 13 12 11 9 9 8 8 7 10 12 13 13 14 13 12 8 8 8 11 15 16 16 18
19 18 17 16 15 15 15 17 24 28 22 19 19 21 28 25 17 18 16 9 7 10 11 10 10 11 10 10 10 10 11 12 12 12 11 10 9 8 7 11 15 17 17
17 17 18 16 16 17 18 24 34 31 24 22 23 25 30 29 21 14 13 9 7 8 12 12 11 11 11 12 12 12 12 11 11 11 11 10 9 7 5 5 12 14 15
19 20 18 16 17 19 19 28 43 32 26 25 27 31 31 31 31 21 14 8 6 6 10 12 14 13 13 12 11 11 13 13 12 11 9 9 8 8 6 5 7 10 13
20 20 18 17 18 20 23 39 48 34 33 32 29 31 34 37 32 31 28 18 15 10 8 8 9 12 14 15 15 15 15 14 13 11 10 10 12 13 14 14 13 14 14
22 21 20 18 18 21 35 56 50 42 38 39 39 35 37 39 38 37 34 31 30 28 25 22 17 13 9 8 8 8 8 8 9 9 9 10 10 11 12 13 14 17 19
25 27 25 24 22 23 50 62 52 44 53 47 41 43 45 44 44 43 43 42 41 40 37 36 35 34 31 28 28 28 28 29 28 29 27 26 26 24 24 24 25 26 27
30 28 28 28 26 25 34 56 59 47 58 53 43 41 42 40 37 37 39 42 43 42 39 38 38 39 41 41 40 38 35 32 31 30 29 28 28 28 27 27 27 26 24
32 32 31 29 27 25 30 63 66 54 56 62 48 44 42 40 39 34 32 34 36 38 39 37 36 36 37 36 33 31 29 27 27 27 28 28 28 26 24 19 17 12 12
33 33 33 31 30 23 24 66 66 60 55 64 58 48 46 46 44 43 40 39 39 39 39 40 37 34 31 31 32 34 36 37 36 33 30 27 23 20 16 10 8 8 6
32 37 31 31 31 23 22 39 60 56 55 63 60 56 57 58 54 52 48 47 47 44 44 43 39 38 36 36 37 38 39 39 35 26 17 13 9 9 8 7 7 10 13
35 32 32 32 32 24 23 27 57 49 49 58 57 55 60 64 59 58 58 56 57 54 54 51 50 39 35 35 35 35 33 34 27 12 7 7 8 8 11 12 16 20 26
22 26 27 27 33 27 45 36 55 51 47 56 58 58 58 60 64 60 57 49 42 38 41 47 50 47 40 36 33 36 37 22 9 6 9 12 18 24 29 32 36 38 38
17 16 20 26 32 38 70 52 58 60 61 64 62 61 68 66 61 49 43 41 40 37 34 40 41 44 41 38 32 36 27 9 6 10 18 28 31 36 37 36 34 33 31
25 15 17 27 34 49 77 70 67 76 74 73 73 78 68 59 44 45 40 35 45 46 37 34 39 35 32 34 42 28 14 12 15 21 29 35 38 38 37 35 31 28 26
34 16 16 28 44 52 84 84 82 80 80 76 80 69 57 45 45 47 40 48 62 60 56 53 51 46 43 36 24 18 14 11 17 29 37 41 40 38 36 33 29 26 24
32 23 16 30 44 61 87 88 78 84 79 75 66 56 45 46 44 38 38 54 56 56 54 48 44 35 28 25 21 15 13 20 31 36 40 38 36 32 29 26 24 23 23
31 27 16 30 34 39 75 71 75 79 76 67 57 49 47 46 32 42 54 55 53 49 45 38 34 30 26 20 15 15 22 36 41 38 34 30 28 26 25 26 29 31 32
30 33 17 21 29 33 64 67 71 72 74 69 62 53 47 30 26 30 39 44 44 39 34 29 24 20 13 14 31 44 45 43 36 31 28 27 30 37 40 38 33 32 33
28 40 32 17 17 29 35 61 66 73 70 68 57 50 43 26 30 36 38 37 32 30 26 20 12 12 24 43 45 40 35 31 29 29 35 40 41 37 36 37 36 36 36
28 39 34 19 25 32 34 48 63 65 64 64 53 50 50 37 32 36 33 26 28 26 18 11 12 34 42 44 43 39 38 38 45 47 43 38 39 41 41 41 41 40 39
30 40 41 30 39 32 40 41 41 57 65 60 52 49 54 52 41 34 27 28 21 16 10 16 40 50 45 38 36 36 47 58 55 47 42 44 46 44 41 38 36 32 27
29 33 43 47 42 27 36 48 54 56 62 53 48 50 51 51 37 28 26 17 15 11 18 37 51 45 36 35 43 57 55 52 46 47 46 46 43 37 31 25 20 16 13
29 32 38 45 34 29 30 37 46 51 50 45 44 42 46 39 27 24 16 17 16 26 45 52 42 37 51 65 60 58 54 48 55 54 47 39 33 28 21 15 13 12 11

GFSSE_500_rhum_036.txt.gz
RH
23 24 27 21 16 14 13 12 11 11 16 16 12 10 10 9 10 9 11 15 18 18 13 10 8 7 9 9 6 9 12 12 12 12 13 14 14 12 9 13 15 16 16
26 23 24 19 17 16 13 10 9 10 11 12 10 8 8 10 12 15 14 17 19 18 16 13 9 9 9 10 9 8 11 12 13 12 13 14 14 13 8 10 15 16 16
25 21 21 21 16 14 12 11 10 11 14 14 12 10 12 14 17 17 20 21 21 18 14 14 11 9 9 8 8 8 8 11 13 14 14 14 13 12 9 8 10 15 17
22 18 21 18 18 16 14 13 14 16 17 17 15 14 15 17 20 17 17 18 16 14 8 10 11 11 10 10 10 10 10 10 11 12 12 12 11 11 10 9 7 8 14
23 16 18 21 20 19 17 16 16 22 25 23 19 18 19 21 22 25 20 12 9 8 8 8 10 13 12 11 11 11 12 12 12 12 12 12 12 10 9 8 6 4 7
29 21 23 23 20 18 18 19 21 29 34 31 25 24 22 22 28 28 29 23 16 11 7 6 7 10 13 14 14 14 14 13 12 13 14 13 12 10 9 10 10 9 6
21 20 28 26 23 19 19 22 30 37 40 35 32 28 26 28 32 32 32 31 30 26 21 19 15 10 8 9 11 12 13 12 12 11 10 10 9 9 10 12 14 14 15
18 21 25 28 22 20 22 26 41 54 47 44 39 36 34 31 33 34 36 36 34 31 30 30 30 31 29 27 24 20 18 18 18 19 18 17 17 15 12 12 13 14 14
21 25 29 26 26 24 24 30 54 64 53 48 50 43 40 42 43 43 43 43 42 40 39 39 40 39 39 39 40 39 37 36 35 33 32 30 29 29 29 29 28 28 28
30 31 32 30 31 29 26 26 52 65 62 52 57 50 42 42 42 38 36 35 36 37 39 41 41 38 36 34 35 36 36 36 34 33 30 30 28 28 28 28 28 27 26
33 33 34 35 34 33 29 26 32 55 75 60 59 63 48 46 44 42 41 38 35 35 36 38 39 40 39 37 35 33 32 33 34 34 35 35 34 33 32 30 27 26 24
37 35 36 36 36 34 32 27 26 62 82 75 61 64 60 54 53 49 47 45 44 42 43 44 44 44 43 39 37 36 37 37 37 35 35 36 33 24 17 16 17 16 13
36 36 37 36 35 33 32 30 23 36 79 74 62 62 64 62 60 59 58 53 52 54 52 49 46 48 51 49 46 38 34 32 30 30 26 27 19 9 6 6 6 7 8
32 34 35 35 35 31 30 30 24 25 62 71 58 58 64 57 56 59 60 58 58 52 46 44 42 39 41 44 46 46 41 36 31 27 27 18 10 8 7 9 15 17 19
30 33 35 32 32 30 28 30 30 38 50 68 59 56 60 56 53 59 61 61 52 45 40 39 41 39 39 40 39 40 40 33 30 30 26 18 14 13 16 25 32 38 37
32 28 22 21 25 25 26 30 53 60 59 75 71 56 53 57 63 70 63 50 44 43 37 43 57 54 58 54 40 33 33 35 35 26 19 14 13 19 28 37 42 41 38
33 40 32 17 15 16 25 33 66 68 76 85 76 71 67 69 77 64 53 44 48 42 46 57 61 62 60 58 50 42 34 27 24 22 16 13 15 21 33 42 42 40 38
41 33 39 24 15 17 26 37 64 88 92 84 84 82 76 79 65 56 45 46 42 38 46 56 58 55 52 50 39 34 32 30 26 21 18 24 32 38 40 39 37 33 28
42 36 30 32 16 18 30 44 65 94 92 83 91 90 81 70 57 49 46 43 37 50 52 51 52 49 47 40 34 27 22 18 14 17 28 36 40 39 36 31 28 27 28
45 42 27 32 21 17 33 45 68 91 85 86 91 88 78 62 53 48 45 26 26 35 43 44 42 38 31 26 20 14 14 26 41 46 42 37 34 32 31 33 38 43 44
50 45 34 31 30 17 33 38 51 85 77 80 80 78 73 61 52 48 35 28 38 40 39 32 29 30 22 14 12 21 32 42 43 40 38 37 37 43 49 49 47 43 42
55 45 38 32 42 27 21 28 33 66 73 73 81 74 71 58 51 49 45 32 33 36 31 28 28 19 17 12 13 33 46 43 42 37 36 42 52 55 51 46 45 46 48
52 50 42 28 43 36 17 20 30 38 63 69 75 69 66 56 51 51 55 50 42 34 28 26 16 19 15 13 26 39 44 41 39 43 52 52 52 50 49 53 55 52 46
39 49 46 29 30 38 27 34 33 36 43 58 61 59 66 56 52 50 48 48 42 31 25 16 21 16 18 34 40 44 45 50 52 47 57 57 54 56 59 54 46 38 31
24 48 46 32 39 42 37 41 33 42 45 46 55 62 62 53 49 44 40 41 31 24 17 22 19 22 38 48 48 50 63 66 65 56 50 58 60 57 47 36 28 22 19
28 54 49 33 32 40 46 43 28 32 44 50 50 53 52 46 44 39 35 31 22 19 24 21 32 43 56 60 62 68 72 73 75 61 56 53 46 43 35 23 18 19 19

GFSSE_500_rhum_039.txt.gz
RH
14 18 21 22 20 16 13 11 10 9 8 8 8 9 8 9 11 14 13 16 20 19 18 16 12 10 9 8 8 9 6 9 13 12 12 12 13 14 14 14 10 11 14
18 20 20 21 19 16 14 13 12 10 10 11 12 11 10 12 14 16 16 16 17 20 16 18 16 14 10 10 9 9 10 8 10 12 13 13 14 14 15 14 11 9 13
17 26 23 20 20 18 16 14 13 12 12 12 14 12 10 10 12 17 15 15 17 17 19 18 16 15 11 10 9 9 8 8 8 11 14 15 15 14 13 12 11 9 9
11 14 22 18 18 19 18 15 14 14 15 15 16 14 12 11 12 15 15 16 17 17 16 15 8 10 11 11 10 10 11 11 11 11 12 12 12 12 12 11 10 9 7
25 15 16 15 16 17 18 17 15 15 17 17 22 17 15 14 14 16 19 20 16 12 11 9 7 7 9 12 12 12 11 11 12 12 12 12 13 13 13 12 11 10 10
54 32 23 14 16 18 20 20 18 16 16 18 27 24 21 18 17 18 21 22 26 22 17 13 9 8 7 7 8 12 13 13 13 14 14 15 15 14 13 12 11 10 11
36 40 27 20 17 20 22 21 20 22 26 27 33 31 28 26 23 22 25 27 28 30 30 29 28 26 25 24 21 17 13 11 10 10 10 11 13 14 14 13 12 10 10
37 35 24 22 22 23 23 22 22 24 29 37 39 36 36 36 33 28 30 29 28 32 33 35 34 33 32 32 31 32 34 32 32 33 32 33 34 32 30 30 30 30 30
52 48 32 23 28 26 24 24 25 28 40 51 48 46 45 41 39 40 41 40 40 42 41 42 42 41 40 39 39 37 36 36 36 36 36 35 34 33 32 31 30 29 28
30 28 27 29 31 29 28 29 28 28 44 58 59 52 52 48 42 42 41 38 36 35 35 36 37 37 39 40 39 38 36 35 33 32 33 34 34 34 35 34 33 33 32
29 30 34 33 34 33 32 33 29 28 30 52 64 62 56 61 48 45 43 43 43 41 40 40 40 41 43 42 42 40 38 36 36 36 36 35 32 30 30 33 30 21 20
29 32 33 39 38 37 35 34 31 30 27 36 59 73 63 61 60 50 48 49 49 46 45 46 44 44 43 42 46 47 46 46 42 38 34 32 29 26 24 21 15 10 6
26 33 38 37 37 38 38 35 32 31 26 29 72 82 80 64 64 62 54 58 57 54 52 51 47 45 43 42 39 38 40 41 42 43 41 36 32 29 25 21 16 14 10
28 30 39 38 37 36 36 33 30 30 26 24 57 82 74 67 61 62 56 58 58 57 58 51 45 38 38 42 40 40 39 39 39 39 36 31 30 29 26 22 19 17 16
32 30 32 35 34 33 33 32 30 30 28 28 37 70 69 60 58 60 56 58 59 63 52 44 43 41 46 44 43 48 45 43 40 40 38 33 28 24 21 18 14 14 17
40 35 32 32 34 34 32 32 30 28 32 53 54 70 65 57 51 54 56 64 65 59 44 47 44 46 56 56 57 57 56 54 46 36 32 30 28 27 22 18 17 20 25
51 40 37 33 28 24 24 23 24 27 37 66 67 77 68 62 55 61 74 74 63 48 45 46 39 42 55 55 55 52 47 43 38 34 29 25 21 17 17 21 29 37 39
52 50 41 36 39 35 22 16 16 27 42 80 76 75 73 74 70 76 78 65 55 48 48 39 41 50 54 53 51 41 33 30 24 18 14 14 22 32 41 43 41 38 35
49 54 53 46 35 34 33 18 17 30 45 87 82 76 76 78 82 81 72 59 52 50 43 27 41 43 42 43 35 32 26 18 14 10 15 27 37 42 42 40 37 33 32
19 45 56 51 46 33 36 26 17 30 54 77 82 82 80 84 90 82 68 61 55 50 32 30 37 39 40 35 31 27 17 17 15 20 34 40 42 41 41 40 40 42 46
16 26 56 57 49 36 33 31 17 31 49 63 67 80 78 84 82 78 72 64 54 49 39 31 33 37 32 30 26 17 19 17 14 25 34 40 42 42 40 40 46 51 50
16 19 41 61 53 44 31 34 20 32 49 70 78 77 78 81 77 75 72 61 53 52 51 50 43 34 30 25 17 20 21 24 30 39 40 40 43 50 55 56 57 54 54
13 20 30 58 57 47 36 35 36 22 47 63 75 78 75 79 78 70 68 62 54 50 48 42 41 33 24 18 25 24 21 32 35 41 45 53 60 61 62 68 64 60 59
13 20 23 42 59 51 40 34 41 20 28 43 43 53 73 69 69 62 68 61 53 48 40 37 34 23 19 27 23 24 30 33 32 36 58 68 65 73 70 62 61 60 57
18 17 21 24 50 56 46 38 44 34 38 47 46 41 47 55 53 62 64 55 49 42 34 32 23 21 27 24 28 34 36 38 41 38 36 69 75 67 64 63 61 49 38
22 18 16 18 32 55 50 43 53 44 43 34 37 46 50 55 56 54 50 46 42 33 32 25 25 26 25 28 33 37 44 52 54 55 58 59 58 60 62 55 40 35 31

GFSSE_500_rhum_042.txt.gz
RH
8 9 14 14 18 19 14 11 11 10 9 8 9 9 9 9 8 8 9 8 8 9 11 14 16 15 12 12 9 7 9 9 7 9 13 13 12 12 13 14 15 14 12
7 10 10 12 14 16 18 15 12 10 10 10 12 12 11 10 9 9 10 11 12 14 18 16 16 16 16 14 10 10 9 9 9 9 9 12 14 14 14 14 14 14 12
12 10 14 14 15 17 15 13 12 12 11 11 12 11 12 11 11 14 14 15 14 17 18 18 17 16 16 15 13 12 10 9 9 9 8 10 11 12 13 13 13 12 12
20 14 16 19 19 16 15 14 12 11 11 12 14 13 14 13 13 16 16 14 15 16 16 15 15 12 9 10 12 11 11 10 11 11 11 11 12 12 12 12 12 12 11
27 25 18 18 15 12 13 13 13 13 12 12 16 17 17 15 13 14 17 17 17 16 15 14 13 12 10 8 9 10 13 13 12 12 12 12 12 13 13 14 14 14 13
27 46 34 26 21 13 11 13 14 14 14 14 17 17 22 20 17 16 16 17 18 19 19 17 15 12 8 8 8 8 8 8 9 10 12 12 11 9 9 9 9 10 10
32 43 48 34 27 13 15 15 16 15 16 16 21 24 27 24 22 20 18 18 17 22 25 25 26 27 28 28 30 30 29 29 28 29 30 31 31 31 30 29 29 30 30
32 36 36 41 24 14 16 18 20 19 18 19 24 30 36 33 33 33 28 24 23 23 23 24 26 29 31 34 36 36 37 37 37 37 37 37 37 37 36 35 34 32 31
37 35 51 50 40 20 18 22 22 20 21 22 29 39 44 44 42 38 37 38 37 37 37 38 36 38 39 40 39 38 38 37 36 35 34 32 32 32 33 34 34 34 34
36 38 48 43 41 26 22 23 25 25 25 23 28 43 53 48 51 44 42 41 40 37 35 34 35 36 38 39 40 40 39 38 36 34 33 35 36 36 36 34 31 31 34
31 33 35 30 33 30 34 30 30 31 30 29 27 39 59 60 56 56 49 45 44 42 42 43 43 44 44 44 44 43 43 45 46 44 41 37 35 33 32 30 27 24 22
34 33 33 34 33 36 36 36 34 34 32 31 27 29 48 71 66 61 64 51 50 50 50 51 47 46 43 41 42 41 40 39 38 39 41 41 42 40 38 34 30 28 25
38 36 32 32 35 34 37 36 37 37 35 32 30 26 39 64 79 70 66 64 61 57 58 56 54 53 50 44 37 38 38 36 38 39 40 39 39 38 34 31 30 28 25
42 40 31 30 37 38 38 37 37 35 32 31 30 26 37 71 76 76 65 63 61 59 58 58 61 52 45 42 44 43 42 46 45 40 38 34 35 35 34 31 27 25 23
53 46 36 29 34 41 39 35 34 31 31 31 31 28 27 49 79 71 62 60 61 59 59 62 61 48 47 45 47 56 58 58 57 54 48 42 37 35 32 31 29 26 23
60 52 40 32 31 35 40 37 33 31 30 31 32 36 36 41 65 65 58 60 62 63 68 63 57 46 47 42 41 54 54 54 53 48 40 33 27 22 18 16 14 12 12
62 60 51 40 34 32 32 33 33 30 30 29 30 49 58 60 72 67 65 65 68 75 72 62 51 47 46 38 43 51 52 49 42 35 30 22 19 13 8 10 15 24 33
47 61 59 53 44 36 34 31 28 24 19 18 29 42 74 68 71 69 74 78 84 84 66 57 51 52 34 40 51 48 42 39 34 34 22 21 19 12 14 22 28 34 36
20 34 59 61 53 45 38 34 32 34 23 17 27 42 82 79 79 75 83 84 81 77 64 60 57 51 28 26 32 39 39 31 33 24 20 21 19 17 24 32 37 40 41
16 18 30 60 62 52 47 44 33 29 35 19 26 46 77 91 85 78 89 90 82 76 67 64 57 49 36 32 34 38 34 32 28 19 25 22 21 24 30 36 39 40 41
17 17 19 33 69 64 53 49 43 31 39 30 33 51 67 95 93 82 88 86 82 79 74 65 55 51 46 46 48 42 36 28 19 26 26 22 25 30 33 33 34 35 37
25 17 15 21 39 69 66 56 47 35 34 46 44 61 85 92 87 85 89 84 77 74 72 66 56 52 47 44 45 40 29 20 26 27 25 29 32 36 38 40 42 42 38
24 23 16 18 24 32 58 62 54 46 35 34 26 52 76 88 90 86 88 86 80 70 69 68 59 51 46 40 36 30 21 26 28 28 34 35 38 45 49 50 47 51 57
22 25 23 15 20 21 39 59 59 51 37 43 37 29 59 74 79 96 88 79 73 63 65 67 56 47 44 40 29 22 28 27 26 30 39 42 50 52 52 62 69 67 63
24 21 23 15 18 19 25 61 62 54 40 40 54 56 59 69 65 58 61 62 62 57 63 57 45 45 43 29 24 28 28 31 33 34 38 47 56 72 73 71 66 65 63
22 24 22 17 17 18 20 33 64 62 48 46 57 61 59 57 61 49 47 49 56 56 50 42 42 36 27 26 30 32 35 36 39 38 37 56 65 67 64 62 62 64 57

GFSSE_500_rhum_045.txt.gz
RH
5 4 4 5 7 8 10 12 11 9 9 9 8 8 9 8 8 8 8 8 8 9 11 11 11 12 12 12 11 11 9 8 8 9 8 8 10 12 12 12 12 13 14
9 7 7 6 7 11 12 13 13 11 9 9 8 8 10 10 9 8 8 10 11 10 11 12 14 14 15 16 16 14 10 10 10 9 9 9 9 11 13 14 14 14 14
15 11 9 8 8 9 11 13 13 12 10 9 8 8 10 10 10 10 10 11 11 12 15 16 15 15 15 15 16 15 14 12 11 10 9 9 10 10 10 11 11 12 12
26 22 16 14 15 14 13 12 12 12 10 9 9 9 11 12 12 11 13 16 16 16 16 16 15 14 14 14 11 10 12 12 12 11 11 11 11 12 12 12 12 12 13
27 23 23 19 20 20 16 14 12 11 10 11 11 10 12 14 15 14 13 17 17 15 14 14 14 14 14 13 11 9 8 8 10 12 12 13 13 14 14 14 14 14 12
28 28 26 25 25 19 15 11 11 12 11 11 11 11 12 14 17 18 17 18 18 21 22 20 17 15 14 14 11 10 12 12 10 10 9 9 10 10 11 12 13 22 25
22 26 24 23 25 25 19 14 10 12 11 11 12 12 14 19 23 21 19 19 20 20 21 21 22 22 23 26 28 29 30 29 30 32 33 33 32 31 34 33 34 35 35
23 23 24 27 29 28 23 14 12 11 12 13 13 14 17 19 30 28 28 27 24 23 23 21 20 20 24 28 30 32 35 36 38 37 37 36 35 35 34 33 32 32 32
24 24 26 25 25 30 28 19 12 12 14 15 15 17 22 28 35 39 38 38 35 32 32 32 34 35 35 35 37 37 39 39 39 38 37 35 34 32 33 34 36 36 36
26 27 26 26 29 37 36 29 17 19 20 20 20 20 23 32 47 48 45 42 39 39 38 37 35 34 35 36 37 39 41 43 43 43 41 39 37 36 36 36 33 30 29
32 29 27 25 29 30 25 24 22 22 24 25 28 27 26 34 50 57 58 54 46 44 44 43 43 42 43 43 43 42 41 41 40 40 39 42 45 45 44 43 41 39 36
38 36 32 28 27 28 27 27 25 27 30 32 32 31 28 28 44 61 66 64 64 53 49 50 52 50 47 44 45 46 46 38 36 37 37 37 37 38 39 39 39 36 33
43 41 38 34 30 28 27 30 29 29 32 34 34 32 30 28 30 48 73 75 67 68 64 58 55 54 51 50 53 46 42 43 36 34 37 32 33 35 34 35 32 31 33
37 46 44 40 38 33 28 27 30 32 33 35 34 32 30 30 28 42 74 87 80 68 67 63 60 55 53 60 52 47 46 47 49 51 54 51 51 48 44 40 36 33 31
21 40 52 48 43 40 29 27 32 37 39 36 33 33 31 31 30 27 59 84 78 71 65 63 60 59 60 62 50 46 46 41 53 52 47 48 40 36 32 25 20 17 12
17 22 46 55 49 42 33 28 30 37 40 34 33 35 35 33 34 32 37 71 72 67 67 66 63 65 65 60 47 48 42 39 48 50 46 42 34 36 26 22 20 16 12
15 17 21 49 55 51 39 31 31 32 35 37 36 37 37 34 35 52 54 70 71 70 69 69 70 75 65 57 50 49 32 47 49 49 42 34 37 37 25 25 24 17 14
14 12 16 24 48 55 48 40 34 30 32 33 36 30 23 30 33 97 81 75 80 74 76 82 85 79 62 55 54 45 26 26 31 38 39 35 40 33 24 27 23 18 18
19 12 12 14 25 51 55 48 44 37 32 33 33 32 18 19 32 47 96 86 84 84 88 87 86 75 63 60 56 47 36 33 35 38 38 37 36 25 26 27 20 20 22
21 18 13 13 18 33 53 54 50 45 41 38 39 41 30 18 28 41 81 96 93 86 92 93 89 76 70 66 57 52 50 48 49 49 46 36 24 24 28 23 23 26 28
20 21 20 15 17 22 35 56 56 51 48 47 51 42 54 41 28 45 71 100 96 91 94 89 82 79 75 69 60 54 49 47 44 42 38 25 23 29 25 25 28 28 29
16 20 22 20 18 18 21 37 55 50 50 49 56 58 62 69 70 76 90 96 96 90 93 91 82 74 71 70 65 58 50 45 43 41 27 23 28 27 29 30 31 33 33
18 18 22 21 24 19 19 21 24 28 64 58 54 49 49 54 74 72 90 97 97 97 96 94 89 78 64 67 68 56 50 47 48 35 25 29 30 32 33 35 35 33 36
16 17 20 22 25 26 18 19 18 25 47 64 57 58 63 68 59 60 72 88 88 99 96 96 82 69 61 62 60 50 48 53 40 26 30 33 35 38 37 38 49 56 55
19 18 21 21 20 25 25 17 20 15 19 54 66 60 56 54 74 69 53 61 78 76 75 71 63 56 58 56 48 41 42 34 26 32 36 39 40 40 43 51 59 58 56
18 19 21 25 24 21 26 18 18 14 18 37 65 64 60 64 71 76 72 72 73 69 52 49 52 56 51 42 35 32 31 29 35 37 39 43 44 60 60 59 55 45 46

GFSSE_500_rhum_048.txt.gz
RH
11 5 3 4 4 4 5 7 11 11 9 8 7 7 7 6 6 7 7 7 8 8 10 12 13 14 15 14 13 12 12 13 10 8 9 10 9 8 8 10 12 12 13
16 10 6 4 4 4 5 6 8 12 12 10 8 8 7 6 6 7 7 8 10 11 10 12 14 14 15 15 16 16 16 15 10 12 12 9 9 9 9 9 10 11 12
22 18 12 8 5 5 6 6 7 9 11 11 10 8 7 7 7 7 7 8 10 12 13 12 13 14 16 16 14 15 15 15 14 13 13 11 10 10 11 11 11 11 11
20 22 20 18 14 8 8 7 8 8 9 10 10 9 8 8 8 8 9 9 11 12 14 13 14 14 15 14 14 14 13 12 12 12 12 13 12 11 11 12 12 12 12
18 19 19 22 21 15 13 10 9 9 9 9 9 9 9 9 9 9 10 10 11 12 13 13 14 13 13 13 12 11 11 10 8 8 9 9 10 11 12 12 12 12 12
15 18 17 18 20 20 19 14 12 9 8 9 9 9 9 10 10 11 13 13 14 16 18 20 20 18 17 16 17 18 17 17 19 20 22 20 19 18 18 17 19 24 28
17 19 16 16 18 20 20 20 14 11 8 8 10 10 11 11 13 15 18 17 16 16 19 21 22 22 24 25 25 26 26 24 24 24 24 24 27 27 30 34 35 34 34
21 21 17 18 17 18 19 23 22 17 12 9 11 13 14 13 15 16 23 26 25 24 24 25 26 25 24 24 26 24 24 27 29 31 33 33 36 35 36 35 34 34 33
20 21 17 16 17 18 18 18 22 22 14 10 9 10 11 12 15 19 27 35 37 38 37 34 32 36 37 36 32 31 34 36 37 38 39 39 38 36 34 33 34 36 37
22 23 23 20 18 17 18 20 21 22 20 14 14 14 14 15 17 23 30 43 44 43 42 40 38 37 36 35 35 35 38 38 39 41 42 41 42 46 45 42 39 37 37
28 24 25 24 22 22 20 18 22 21 19 18 18 18 20 23 23 24 36 56 57 56 48 45 44 43 43 42 43 43 42 40 39 39 38 37 38 39 40 40 42 43 41
30 32 28 28 27 25 24 22 19 20 22 20 21 23 25 28 26 24 25 35 61 63 61 54 49 47 46 48 46 44 42 42 42 38 39 32 33 34 35 36 38 37 36
16 23 32 28 31 30 28 27 24 22 21 22 25 26 27 27 28 27 26 29 43 62 66 66 64 59 57 54 53 52 47 52 42 46 42 42 48 48 47 48 39 36 35
14 16 22 26 29 35 36 34 30 26 23 23 27 31 32 33 30 29 29 28 40 56 83 74 68 69 67 61 56 52 56 56 45 46 43 50 47 43 45 40 36 32 26
12 13 14 14 17 22 37 37 34 32 26 24 30 35 34 34 34 32 31 31 31 51 78 81 78 69 64 62 59 56 60 56 45 45 41 46 46 46 41 35 38 32 25
12 9 11 14 13 16 24 38 38 38 31 26 30 38 36 33 36 37 34 31 37 38 55 77 74 71 66 62 59 63 63 55 49 42 41 44 46 44 39 36 43 39 26
13 14 10 8 9 13 16 29 33 40 45 33 29 36 36 37 38 39 38 31 35 53 59 72 72 71 69 65 63 74 65 54 51 35 34 41 40 41 38 36 43 36 26
12 13 14 9 8 9 12 32 42 39 44 41 33 33 37 38 41 29 23 24 29 96 81 67 76 77 78 82 87 81 64 58 54 45 34 35 36 40 44 48 38 27 25
14 14 14 14 12 9 8 12 31 39 39 46 43 38 37 40 39 32 20 18 24 68 91 78 80 82 86 88 88 79 68 65 57 53 52 52 52 53 50 41 29 24 29
12 15 16 15 16 14 11 9 16 28 31 50 49 45 43 47 47 43 36 20 21 34 50 86 88 85 90 92 91 83 77 72 64 56 53 51 48 46 46 36 25 28 29
13 12 15 18 17 18 15 12 13 23 22 42 54 54 59 64 68 62 61 58 33 36 46 71 98 90 86 93 87 81 76 73 70 63 54 50 49 52 47 32 29 31 31
9 12 14 16 17 19 18 16 14 16 17 22 50 58 58 59 64 63 55 64 80 64 88 86 96 98 92 90 92 90 81 68 67 65 58 51 53 50 36 29 33 33 32
10 13 12 13 18 16 22 20 15 17 13 18 29 37 55 69 70 57 68 72 76 89 92 89 92 98 98 93 93 88 78 66 61 58 52 46 48 37 30 35 36 35 36
10 14 15 14 18 20 19 20 18 20 19 21 31 37 49 62 71 69 70 80 89 70 61 65 69 74 80 91 93 86 66 58 56 52 42 38 32 32 38 39 41 41 43
13 15 16 16 16 23 20 23 18 22 27 27 31 31 30 48 70 80 74 70 72 71 76 74 75 79 76 62 52 51 56 56 46 39 33 30 35 42 42 44 46 49 53
11 11 16 18 18 21 23 26 21 20 27 26 22 28 27 29 62 82 79 78 77 76 77 71 73 69 58 50 56 64 48 36 31 25 28 38 43 52 50 51 55 60 58

GFSSE_500_rhum_051.txt.gz
RH
11 11 7 4 4 4 4 5 5 8 11 10 9 7 7 6 6 5 5 6 6 7 7 8 8 11 12 13 14 13 11 12 14 12 10 10 12 11 10 9 9 8 9
20 16 11 6 4 3 4 4 4 5 6 8 10 9 8 7 6 6 5 5 6 7 7 8 9 11 14 14 13 14 14 15 15 14 12 14 14 11 9 9 9 9 10
23 19 18 15 9 6 5 5 5 5 6 7 9 10 9 8 7 6 6 6 5 6 7 9 11 11 12 14 14 13 14 15 14 12 12 13 14 14 12 11 11 12 12
17 20 19 19 15 13 9 6 5 5 6 6 7 8 9 8 8 7 7 7 7 6 7 10 12 13 14 14 14 13 14 14 14 13 12 11 9 10 13 13 12 12 12
14 15 15 18 20 21 19 12 8 7 7 7 8 8 9 8 8 8 7 7 8 8 9 11 12 13 13 13 13 13 12 10 11 10 10 12 12 11 10 9 10 10 10
14 14 14 14 14 21 21 18 15 12 9 9 8 9 8 9 8 8 8 8 9 10 11 13 16 16 16 15 15 15 16 17 16 17 17 22 23 25 25 25 25 26 28
17 16 15 14 13 14 18 22 21 19 14 10 8 7 8 9 9 9 10 10 11 13 15 16 17 19 20 20 21 21 18 18 20 20 22 27 30 31 33 32 32 34 34
18 18 19 16 14 13 14 15 17 20 22 17 13 9 8 9 10 11 10 12 15 20 21 20 19 20 22 23 21 20 21 22 25 32 32 32 36 38 39 38 37 36 34
17 20 20 18 16 16 15 15 14 15 17 22 19 12 10 9 9 10 11 14 16 24 26 28 29 29 27 29 30 32 30 32 37 38 37 39 41 41 42 43 42 38 35
14 16 18 18 18 18 19 18 18 17 18 18 20 18 13 13 13 14 15 16 18 26 32 34 37 38 37 36 36 36 37 38 41 40 39 40 39 40 40 40 40 44 46
12 20 21 19 18 19 20 21 21 19 17 19 20 18 17 17 18 19 21 20 23 28 40 42 46 44 44 44 44 44 44 42 43 40 39 40 34 30 27 31 35 38 39
15 11 12 14 17 18 19 21 20 21 21 20 18 21 21 20 20 23 25 25 25 31 45 57 53 53 50 50 49 50 50 47 49 48 49 40 39 30 35 36 38 38 35
8 10 18 14 14 18 20 20 23 24 24 24 22 21 24 24 25 25 28 28 28 28 35 51 65 65 66 64 62 61 58 57 53 53 55 43 45 42 48 47 42 42 40
6 7 11 14 14 16 25 24 24 26 28 27 26 24 26 28 30 31 32 31 29 28 29 31 50 70 74 69 68 69 66 60 57 59 61 47 46 44 47 48 43 43 36
7 9 6 12 12 9 12 11 17 25 29 31 30 27 25 29 34 36 36 34 32 29 27 29 30 47 70 81 77 69 66 61 58 61 63 49 46 42 42 46 45 42 36
8 8 8 7 8 8 8 8 10 14 29 34 40 36 29 27 31 36 35 35 35 32 30 28 35 39 43 64 71 69 66 62 59 68 66 53 48 33 45 47 46 42 38
8 8 8 10 8 9 8 6 9 13 19 22 37 43 41 35 32 37 37 38 36 32 26 25 35 59 55 60 66 66 64 66 69 81 66 58 53 37 31 36 40 41 48
11 9 9 11 11 10 11 8 13 13 10 15 33 42 45 39 38 39 39 39 37 27 20 18 43 90 80 64 68 76 76 79 83 83 69 64 57 54 53 51 52 54 52
12 14 9 9 12 12 12 12 7 8 14 26 26 40 50 50 46 45 39 42 44 41 31 20 20 65 67 66 74 78 81 87 87 82 76 73 67 59 54 54 51 50 51
13 14 15 8 8 11 13 16 12 29 33 19 16 20 49 58 56 51 47 47 53 51 48 50 32 28 40 64 82 83 82 88 87 85 82 77 72 69 62 56 52 53 53
11 10 11 14 10 8 16 19 19 20 12 14 24 20 40 57 67 62 62 65 60 71 68 66 70 45 65 73 78 95 93 89 90 91 88 80 70 66 64 63 56 52 53
8 10 10 9 12 10 12 13 17 20 23 22 33 32 35 33 49 64 73 72 72 66 69 75 76 87 91 96 97 97 97 97 94 94 89 78 70 62 56 52 44 42 39
7 8 9 10 10 11 11 11 18 27 36 32 42 45 29 20 22 42 48 66 77 73 72 81 94 84 86 76 79 80 82 85 83 78 72 62 56 55 48 40 36 32 32
6 7 7 9 9 9 11 13 13 14 21 30 20 34 34 41 50 64 47 56 64 75 79 76 76 84 84 77 75 90 81 73 57 51 55 56 51 40 34 33 32 38 43
9 10 12 13 14 12 11 13 15 16 22 30 38 47 50 54 55 59 54 61 62 71 79 86 86 88 91 89 90 81 58 47 53 57 52 31 25 24 29 36 48 50 49
13 13 13 14 15 14 14 14 15 19 23 28 52 53 53 47 54 52 48 48 56 68 79 89 99 97 94 88 84 50 63 53 43 40 36 32 36 50 50 65 62 55 52

GFSSE_500_rhum_054.txt.gz
RH
15 14 6 4 3 4 4 5 5 6 7 9 10 10 8 8 7 6 6 5 5 5 6 7 7 8 8 9 10 10 12 12 12 12 12 11 10 12 13 11 10 9 9
20 21 15 11 9 5 4 4 4 4 5 6 7 8 10 9 8 7 7 6 5 5 5 6 7 8 8 9 11 11 13 13 13 14 14 13 13 14 14 14 10 10 10
26 25 22 20 15 15 8 5 5 5 5 5 6 7 8 10 9 8 7 7 6 6 6 6 7 8 10 9 11 12 13 13 14 13 12 10 11 12 13 13 14 13 12
19 17 18 22 21 20 17 12 8 6 5 5 5 6 7 8 8 8 8 7 7 7 7 6 8 9 10 10 12 14 15 14 13 14 12 12 10 9 10 11 9 9 10
14 15 15 16 17 21 20 18 16 13 9 6 6 6 7 7 8 8 8 8 8 8 8 8 8 10 11 12 13 13 13 13 12 11 11 11 12 16 18 18 20 22 23
14 13 14 14 13 14 18 20 20 20 16 12 10 9 8 8 8 8 8 8 8 8 8 9 10 11 12 13 14 14 14 15 17 20 22 23 23 22 22 21 24 28 28
15 15 14 14 13 13 13 14 15 19 20 20 18 14 10 7 7 7 8 9 9 9 9 10 11 12 13 14 16 19 19 21 22 22 23 24 26 28 27 31 34 35 36
14 16 16 17 15 13 13 13 14 15 16 18 20 22 18 13 10 8 8 8 9 10 10 11 15 17 17 18 19 20 21 26 30 29 29 33 36 36 35 36 38 39 38
14 16 17 18 17 16 16 16 15 15 15 16 17 18 21 20 14 10 9 8 9 10 12 14 19 22 24 26 25 26 32 36 33 34 37 38 38 38 40 40 40 41 42
13 13 15 16 18 18 18 17 18 18 17 17 18 20 21 20 18 15 13 13 14 13 16 18 26 31 34 36 37 36 38 39 40 39 43 43 43 40 38 35 30 28 34
8 9 15 12 16 17 17 18 18 19 19 18 18 17 18 21 20 18 18 19 21 21 21 25 30 43 41 40 42 42 45 46 50 51 49 47 47 48 42 36 28 28 28
8 11 16 9 13 15 14 16 18 18 18 18 20 20 21 19 21 23 23 25 28 27 27 28 34 41 55 50 50 51 54 56 59 58 56 54 53 54 48 45 41 44 44
9 12 14 11 9 16 16 13 15 17 18 18 19 20 22 23 21 21 23 26 29 31 30 28 28 29 40 52 57 62 66 68 70 69 65 58 54 60 51 47 44 45 42
11 11 9 8 10 14 14 14 13 14 16 20 21 24 26 26 25 24 25 28 30 32 32 30 27 27 28 34 50 64 72 72 71 70 67 63 57 62 57 48 45 43 47
11 10 7 9 14 15 13 12 11 10 10 13 15 21 25 28 31 28 28 32 33 34 34 31 30 28 28 31 35 41 63 80 78 71 68 63 59 65 63 52 38 39 45
9 8 7 9 9 10 15 13 10 9 9 9 10 20 31 32 34 34 30 31 35 37 36 36 34 30 28 31 44 45 48 61 68 66 64 62 64 74 66 56 46 30 43
6 12 13 16 11 10 10 12 16 10 11 14 10 13 21 24 37 43 43 35 35 36 35 38 34 24 21 22 61 79 59 66 74 73 74 72 74 82 70 62 56 53 46
6 7 16 24 27 37 25 19 23 24 19 18 15 12 12 26 37 46 45 45 42 38 39 40 38 34 22 19 38 87 68 70 81 82 86 88 88 83 76 70 67 58 55
7 7 7 8 22 32 38 47 32 26 28 11 10 19 26 28 40 48 52 51 48 45 40 43 46 45 45 39 25 33 42 60 88 90 88 92 92 88 84 79 76 72 68
8 9 8 7 20 27 28 32 42 38 26 26 40 45 40 20 21 37 49 56 57 52 54 60 59 64 64 62 72 59 64 74 73 95 97 93 94 93 90 86 80 72 67
9 10 10 10 7 17 37 48 49 50 52 39 31 34 25 27 29 30 34 42 62 63 64 63 66 63 66 72 71 87 94 95 95 98 96 93 96 97 96 90 80 73 65
12 11 10 10 10 5 6 11 16 28 38 44 43 52 61 36 44 50 46 47 41 55 63 68 76 74 69 78 83 78 87 83 77 77 83 87 80 75 68 62 58 55 55
9 9 9 8 8 7 5 8 20 32 30 38 52 58 63 55 45 55 57 49 45 66 62 66 74 74 74 77 78 79 83 89 86 87 85 80 60 52 55 58 53 42 35
9 8 8 7 6 4 5 5 5 12 14 16 21 29 32 40 37 55 58 63 84 71 62 62 68 66 73 78 78 79 87 85 91 93 66 51 49 46 38 32 29 26 26
6 6 6 6 6 6 5 5 5 6 6 10 17 29 35 52 77 88 86 81 78 72 65 64 69 75 84 90 89 94 92 86 83 71 68 58 62 68 58 47 37 33 33
7 8 8 9 13 15 14 12 10 9 11 12 13 25 32 40 53 82 90 83 81 76 61 58 57 62 68 84 94 77 69 68 71 77 85 88 86 79 65 52 43 42 48